Regional Weather Roundup
Issued by NWS

Home | Current Version | Previous Version | Graphics & Text | Print | Product List | Glossary On
Versions: 1 2 3 4 5 6 7 8 9 10 11 12 13 14 15 16 17 18 19 20 21 22 23 24 25 26 27
000
ASUS45 KCYS 151510
RWRWY

WYOMING REGIONAL WEATHER ROUNDUP
NATIONAL WEATHER SERVICE CHEYENNE WY
800 AM MST SUN JAN 15 2017

NOTE:  "FAIR" INDICATES FEW OR NO CLOUDS BELOW 12,000 FEET
WITH NO SIGNIFICANT WEATHER AND/OR OBSTRUCTIONS TO VISIBILITY.

WYZ001-151600-
YELLOWSTONE NATIONAL PARK

CITY           SKY/WX    TMP DP  RH WIND       PRES   REMARKS
LK YELLOWSTONE   N/A    -22 -27  77 CALM      30.16F
W YELLOWSTONE  NOT AVBL

$$
WYZ002>013-054>058-071-098>099-151600-
NORTHERN WYOMING

CITY           SKY/WX    TMP DP  RH WIND       PRES   REMARKS
JACKSON        PTCLDY   -18 -24  76 CALM      30.24S
CODY           FAIR       1  -4  79 CALM      30.10F
GREYBULL       FAIR     -20 -25  77 S5        30.20S WCI -33
WORLAND        FAIR     -16 -19  87 NE5       30.16S WCI -29
SHERIDAN       FAIR       3  -6  66 S9        30.09S WCI -12
BUFFALO        FAIR      29  -5  22 W7        30.07S WCI  22
GILLETTE       FAIR      14   5  67 S10       30.10S WCI   1
HULETT         FAIR      18   9  68 S12       30.11S WCI   5
NEWCASTLE      FAIR      10   5  79 N5        30.15S WCI   2

$$
WYZ014>020-022>026-101>103-151600-
CENTRAL WYOMING

CITY           SKY/WX    TMP DP  RH WIND       PRES   REMARKS
BIG PINEY      ICE FOG  -20 -23  86 NW6       30.13F VSB 1/4 WCI -35
PINEDALE       FAIR     -17 -22  76 CALM      30.13S
DUBOIS         NOT AVBL
LANDER         FAIR       3  -1  83 CALM      30.12F
RIVERTON       FOG       -3  -6  87 CALM      30.15F VSB 1
CASPER         FAIR      19  15  84 SW9       30.10F WCI   8
DOUGLAS        FAIR      11   7  84 N5        30.13F WCI   3

$$
WYZ021-027>030-104>119-151600-
SOUTHERN WYOMING

CITY           SKY/WX    TMP DP  RH WIND       PRES   REMARKS
EVANSTON       FAIR       0  -5  79 CALM      30.10R HAZE
ROCK SPRINGS   FOG        8   4  83 W5        30.12F VSB<1/4 WCI   0
RAWLINS        FOG       16  13  88 NE3       30.11F VSB 1/4
LARAMIE        FAIR       9   4  80 CALM      30.08R
CHEYENNE       FAIR      21  17  84 W5        30.08S WCI  15
TORRINGTON     FAIR      18  15  88 N7        30.12F WCI   9

$$




USA.gov is the U.S. government's official web portal to all federal, state and local government web resources and services.